When you browse on this site, cookies collect data to enhance your experience and personalize the content and advertising you see.
Visit our Privacy Policy to learn more. By continuing to use the site, you agree to this use of cookies and data.
  • In United Kingdom
  • List of Countries
  • For 7 days
  • Water Temperature
  • Weather Map
  • Weather Widgets
  • user-avatar
    Login

    Hourly Weather Polotsk

    Today, 15 September, Sunday

    Time Temperature Precipitation Wind Pressure Humidity
    00:00 +8°C° 0 mm 3 mps 752 mmHg 84%
    01:00 +8°C° 0 mm 3 mps 752 mmHg 86%
    02:00 +8°C° 0 mm 3 mps 752 mmHg 87%
    03:00 +7°C° 0 mm 3 mps 752 mmHg 90%
    04:00 +7°C° 0 mm 3 mps 751 mmHg 92%
    05:00 +5°C° 0 mm 3 mps 751 mmHg 95%
    06:00 +7°C° 0 mm 3 mps 751 mmHg 91%
    07:00 +7°C° 0 mm 4 mps 750 mmHg 87%
    08:00 +10°C° 0 mm 4 mps 750 mmHg 84%
    09:00 +9°C° 0.1 mm 5 mps 749 mmHg 82%
    10:00 +10°C° 0.1 mm 6 mps 748 mmHg 79%
    11:00 +11°C° 0.1 mm 6 mps 747 mmHg 77%
    12:00 +11°C° 0.5 mm 6 mps 746 mmHg 78%
    13:00 +10°C° 0.5 mm 6 mps 746 mmHg 79%
    14:00 +9°C° 0 mm 6 mps 745 mmHg 80%
    15:00 +10°C° 0 mm 6 mps 744 mmHg 77%
    16:00 +11°C° 0 mm 6 mps 743 mmHg 73%
    17:00 +11°C° 0 mm 6 mps 741 mmHg 70%
    18:00 +13°C° 0 mm 6 mps 741 mmHg 68%
    19:00 +12°C° 0 mm 7 mps 740 mmHg 66%
    20:00 +12°C° 0 mm 7 mps 740 mmHg 64%
    21:00 +12°C° 0.1 mm 7 mps 739 mmHg 67%
    22:00 +12°C° 0.1 mm 7 mps 738 mmHg 70%
    23:00 +13°C° 0.1 mm 6 mps 738 mmHg 73%

    Tomorrow, 16 September, Monday

    Time Temperature Precipitation Wind Pressure Humidity
    00:00 +11°C° 0.1 mm 6 mps 738 mmHg 77%
    01:00 +10°C° 0.1 mm 6 mps 738 mmHg 80%
    02:00 +10°C° 0.1 mm 5 mps 737 mmHg 83%
    03:00 +9°C° 0 mm 6 mps 737 mmHg 82%
    04:00 +9°C° 0 mm 6 mps 737 mmHg 81%
    05:00 +9°C° 0 mm 6 mps 737 mmHg 80%
    06:00 +9°C° 0 mm 6 mps 737 mmHg 79%
    07:00 +10°C° 0 mm 7 mps 737 mmHg 78%
    08:00 +10°C° 0 mm 7 mps 737 mmHg 77%
    09:00 +11°C° 0.2 mm 7 mps 737 mmHg 74%
    10:00 +11°C° 0.2 mm 8 mps 737 mmHg 72%
    11:00 +12°C° 0.2 mm 8 mps 737 mmHg 70%
    12:00 +12°C° 0.2 mm 8 mps 737 mmHg 67%
    13:00 +13°C° 0.2 mm 8 mps 737 mmHg 64%
    14:00 +15°C° 0.2 mm 9 mps 737 mmHg 61%
    15:00 +13°C° 0.2 mm 8 mps 737 mmHg 63%
    16:00 +12°C° 0.2 mm 8 mps 737 mmHg 65%
    17:00 +11°C° 0.2 mm 8 mps 737 mmHg 68%
    18:00 +11°C° 0 mm 7 mps 737 mmHg 69%
    19:00 +10°C° 0 mm 7 mps 737 mmHg 69%
    20:00 +9°C° 0 mm 6 mps 738 mmHg 70%
    21:00 +9°C° 0 mm 6 mps 738 mmHg 71%
    22:00 +8°C° 0 mm 5 mps 738 mmHg 73%
    23:00 +8°C° 0 mm 5 mps 737 mmHg 74%

    Day after tomorrow, 17 September, Tuesday

    Time Temperature Precipitation Wind Pressure Humidity
    00:00 +7°C° 0 mm 5 mps 737 mmHg 74%
    01:00 +7°C° 0 mm 5 mps 737 mmHg 75%
    02:00 +7°C° 0 mm 5 mps 737 mmHg 75%
    03:00 +6°C° 0 mm 5 mps 737 mmHg 78%
    04:00 +6°C° 0 mm 5 mps 737 mmHg 81%
    05:00 +6°C° 0 mm 5 mps 736 mmHg 84%
    06:00 +7°C° 0 mm 5 mps 736 mmHg 81%
    07:00 +7°C° 0 mm 6 mps 736 mmHg 77%
    08:00 +8°C° 0 mm 6 mps 736 mmHg 74%
    09:00 +9°C° 0 mm 7 mps 736 mmHg 68%
    10:00 +10°C° 0 mm 7 mps 736 mmHg 62%
    11:00 +11°C° 0 mm 7 mps 736 mmHg 56%
    12:00 +12°C° 0.1 mm 7 mps 736 mmHg 54%
    13:00 +13°C° 0.1 mm 6 mps 736 mmHg 53%
    14:00 +13°C° 0.1 mm 6 mps 736 mmHg 51%
    15:00 +13°C° 0.1 mm 5 mps 735 mmHg 56%
    16:00 +12°C° 0.1 mm 5 mps 735 mmHg 60%
    17:00 +12°C° 0.1 mm 4 mps 735 mmHg 65%
    18:00 +10°C° 0.2 mm 3 mps 735 mmHg 73%
    19:00 +9°C° 0.2 mm 3 mps 734 mmHg 81%
    20:00 +8°C° 0.2 mm 3 mps 734 mmHg 89%
    21:00 +8°C° 0.4 mm 3 mps 734 mmHg 90%
    22:00 +7°C° 0.4 mm 3 mps 734 mmHg 92%
    23:00 +6°C° 0.4 mm 4 mps 733 mmHg 93%

    18 September, Wednesday

    Time Temperature Precipitation Wind Pressure Humidity
    00:00 +5°C° 0.1 mm 4 mps 733 mmHg 94%
    01:00 +5°C° 0.1 mm 4 mps 733 mmHg 94%
    02:00 +4°C° 0.1 mm 4 mps 733 mmHg 94%
    03:00 +4°C° 0.1 mm 4 mps 733 mmHg 94%
    04:00 +4°C° 0.1 mm 3 mps 733 mmHg 94%
    05:00 +4°C° 0.1 mm 3 mps 733 mmHg 94%
    06:00 +5°C° 0.2 mm 3 mps 734 mmHg 93%
    07:00 +5°C° 0.2 mm 4 mps 734 mmHg 93%
    08:00 +5°C° 0.2 mm 4 mps 734 mmHg 93%
    09:00 +6°C° 0.1 mm 4 mps 735 mmHg 90%
    10:00 +7°C° 0.1 mm 4 mps 736 mmHg 87%
    11:00 +7°C° 0.1 mm 4 mps 736 mmHg 83%
    12:00 +8°C° 0.1 mm 4 mps 737 mmHg 77%
    13:00 +10°C° 0.1 mm 4 mps 737 mmHg 72%
    14:00 +10°C° 0.1 mm 5 mps 738 mmHg 66%
    15:00 +11°C° 0 mm 4 mps 738 mmHg 66%
    16:00 +11°C° 0 mm 3 mps 738 mmHg 67%
    17:00 +11°C° 0 mm 3 mps 739 mmHg 68%
    18:00 +9°C° 0 mm 2 mps 739 mmHg 75%
    19:00 +8°C° 0 mm 2 mps 740 mmHg 82%
    20:00 +6°C° 0 mm 2 mps 740 mmHg 90%
    21:00 +6°C° 0 mm 2 mps 741 mmHg 92%
    22:00 +6°C° 0 mm 2 mps 741 mmHg 93%
    23:00 +5°C° 0 mm 2 mps 741 mmHg 95%

    19 September, Thursday

    Time Temperature Precipitation Wind Pressure Humidity
    00:00 +5°C° 0 mm 2 mps 742 mmHg 95%
    01:00 +5°C° 0 mm 2 mps 742 mmHg 95%
    02:00 +5°C° 0 mm 2 mps 743 mmHg 95%
    03:00 +4°C° 0.2 mm 3 mps 743 mmHg 94%
    04:00 +4°C° 0.2 mm 3 mps 744 mmHg 93%
    05:00 +4°C° 0.2 mm 3 mps 744 mmHg 92%
    06:00 +4°C° 0 mm 3 mps 745 mmHg 90%
    07:00 +4°C° 0 mm 3 mps 745 mmHg 88%
    08:00 +5°C° 0 mm 2 mps 745 mmHg 85%
    09:00 +6°C° 0.1 mm 2 mps 746 mmHg 81%
    10:00 +7°C° 0.1 mm 2 mps 746 mmHg 76%
    11:00 +8°C° 0.1 mm 2 mps 747 mmHg 72%
    12:00 +9°C° 0.2 mm 3 mps 747 mmHg 69%
    13:00 +10°C° 0.2 mm 3 mps 747 mmHg 67%
    14:00 +10°C° 0.2 mm 3 mps 747 mmHg 64%
    15:00 +10°C° 0.2 mm 3 mps 747 mmHg 68%
    16:00 +9°C° 0.2 mm 3 mps 747 mmHg 71%
    17:00 +9°C° 0.2 mm 2 mps 747 mmHg 74%
    18:00 +7°C° 0 mm 2 mps 747 mmHg 80%
    19:00 +6°C° 0 mm 2 mps 748 mmHg 85%
    20:00 +4°C° 0 mm 2 mps 748 mmHg 91%
    21:00 +4°C° 0 mm 2 mps 748 mmHg 92%
    22:00 +3°C° 0 mm 2 mps 749 mmHg 93%
    23:00 +3°C° 0 mm 2 mps 749 mmHg 93%

    20 September, Friday

    Time Temperature Precipitation Wind Pressure Humidity
    00:00 +2°C° 0 mm 2 mps 749 mmHg 94%
    01:00 +2°C° 0 mm 2 mps 749 mmHg 94%
    02:00 +3°C° 0 mm 1 mps 749 mmHg 94%
    03:00 +1°C° 0 mm 2 mps 750 mmHg 94%
    04:00 +1°C° 0 mm 2 mps 750 mmHg 95%
    05:00 +1°C° 0 mm 2 mps 750 mmHg 95%
    06:00 +2°C° 0 mm 2 mps 750 mmHg 91%
    07:00 +3°C° 0 mm 2 mps 750 mmHg 87%
    08:00 +4°C° 0 mm 2 mps 751 mmHg 83%
    09:00 +4°C° 0 mm 3 mps 751 mmHg 74%
    10:00 +7°C° 0 mm 3 mps 752 mmHg 65%
    11:00 +9°C° 0 mm 3 mps 752 mmHg 57%
    12:00 +9°C° 0.1 mm 3 mps 752 mmHg 56%
    13:00 +9°C° 0.1 mm 3 mps 752 mmHg 56%
    14:00 +10°C° 0.1 mm 4 mps 752 mmHg 55%
    15:00 +9°C° 0.2 mm 3 mps 752 mmHg 60%
    16:00 +8°C° 0.2 mm 3 mps 752 mmHg 65%
    17:00 +8°C° 0.2 mm 2 mps 752 mmHg 70%
    18:00 +6°C° 0 mm 2 mps 753 mmHg 74%
    19:00 +5°C° 0 mm 2 mps 753 mmHg 78%
    20:00 +3°C° 0 mm 2 mps 754 mmHg 82%
    21:00 +3°C° 0 mm 2 mps 754 mmHg 81%
    22:00 +3°C° 0 mm 2 mps 754 mmHg 81%
    23:00 +2°C° 0 mm 2 mps 754 mmHg 81%
    Show more